This is the latest recevied weather packets stored in our database for station/object N7NIP. If no packets are shown the sender has not sent any weather packets the latest 10 day(s).
| Time | Temp. | Humidity | Pressure | Rain* | Wind** | Luminosity | Snow |
|---|---|---|---|---|---|---|---|
| 1778042377 | 11.67° C | 94% | 1029.8 hPa | 0 mm | - | 0 W/m² | - |
| 1778042074 | 12.22° C | 94% | 1029.7 hPa | 0 mm | - | 0 W/m² | - |
| 1778041772 | 12.22° C | 94% | 1029.6 hPa | 0 mm | - | 0 W/m² | - |
| 1778041471 | 12.22° C | 93% | 1029.7 hPa | 0 mm | - | 0 W/m² | - |
| 1778041169 | 12.22° C | 93% | 1029.6 hPa | 0 mm | - | 0 W/m² | - |
| 1778040867 | 12.22° C | 93% | 1029.5 hPa | 0 mm | - | 0 W/m² | - |
| 1778040564 | 12.22° C | 92% | 1029.7 hPa | 0 mm | - | 0 W/m² | - |
| 1778040261 | 12.22° C | 92% | 1029.5 hPa | 0 mm | - | 0 W/m² | - |
| 1778039957 | 12.22° C | 92% | 1029.4 hPa | 0 mm | - | 0 W/m² | - |
| 1778039655 | 12.22° C | 91% | 1029.5 hPa | 0 mm | - | 0 W/m² | - |
| 1778039351 | 12.78° C | 90% | 1029.5 hPa | 0 mm | - | 0 W/m² | - |
| 1778039048 | 12.78° C | 90% | 1029.5 hPa | 0 mm | - | 0 W/m² | - |
| 1778038745 | 12.78° C | 89% | 1029.4 hPa | 0 mm | - | 1 W/m² | - |
| 1778038443 | 12.78° C | 89% | 1029.4 hPa | 0 mm | - | 2 W/m² | - |
| 1778038139 | 12.78° C | 88% | 1029.2 hPa | 0 mm | - | 3 W/m² | - |
| 1778037836 | 13.33° C | 87% | 1029.4 hPa | 0 mm | - | 5 W/m² | - |
| 1778037533 | 13.33° C | 86% | 1029.2 hPa | 0 mm | - | 7 W/m² | - |
| 1778037230 | 13.89° C | 86% | 1029.3 hPa | 0 mm | - | 10 W/m² | - |
| 1778036928 | 13.89° C | 85% | 1029.1 hPa | 0 mm | - | 13 W/m² | - |
| 1778036626 | 13.89° C | 84% | 1029.1 hPa | 0 mm | - | 16 W/m² | - |
| 1778036322 | 14.44° C | 84% | 1029.3 hPa | 0 mm | - | 20 W/m² | - |
| 1778036018 | 14.44° C | 83% | 1029.1 hPa | 0 mm | - | 24 W/m² | - |
| 1778035716 | 15° C | 81% | 1029.2 hPa | 0 mm | - | 29 W/m² | - |
| 1778035413 | 15° C | 80% | 1029.2 hPa | 0 mm | - | 33 W/m² | - |
| 1778035109 | 15.56° C | 79% | 1029.1 hPa | 0 mm | - | 36 W/m² | - |
* Rain latest hour (hover to see other rain measurements)
** Current wind speed in m/s (hover to see current wind gust speed)